This demonstration page uses our WeatherBlox Daily Observations layout. Learn more.

41.55636, -103.73856

Hourly Observations for November 11, 2015

Temp ( °F °C ) Dew Point ( °F °C ) Humidity (%) Winds ( mph kmh ) Pressure ( in mb ) Visibility ( mi km ) Precip ( " mm )
12:53 am 00:53 Cloudy 36 2.2 31 -0.6 82 82 NNE 13 20 29.73 1007 10 16.0934 0 0
1:45 am 01:45 Cloudy 36 2.2 31 -0.6 82 82 N 9 15 29.83 1010 10 16.0934 0 0
1:53 am 01:53 Cloudy 36 2.2 31 -0.6 82 82 N 14 22 29.72 1007 10 16.0934 0 0
2:53 am 02:53 Cloudy with Light Rain 35 1.7 31 -0.6 85 85 N 14 22 29.73 1007 10 16.0934 0 0.0254
3:38 am 03:38 Cloudy 34 1 30 -1 87 87 NNW 14 22 29.85 1011 9 14.48406 0 0
3:53 am 03:53 Cloudy with Light Snow 35 1.7 30 -1.1 82 82 NW 17 28 29.72 1007 8 12.87472 0 0.0254
4:30 am 04:30 Cloudy with Light Snow 34 1 30 -1 87 87 NW 12 19 29.85 1011 4 6.43736 0 0
4:43 am 04:43 Cloudy with Light Snow 33 0.6 30 -1.1 89 89 NW 14 22 29.85 1011 2.5 4.02335 0 0.0254
4:53 am 04:53 Cloudy with Light Snow 33 0.6 31 -0.6 92 92 NW 10 17 29.77 1008 3 4.82802 0.01 0.254
5:10 am 05:10 Cloudy with Light Snow 34 1 30 -1 87 87 NW 12 19 29.85 1011 2.5 4.02335 0 0
5:34 am 05:34 Cloudy with Light Snow 34 1 30 -1 87 87 NW 9 15 29.85 1011 3 4.82802 0 0
5:53 am 05:53 Cloudy with Light Snow 33 0.6 31 -0.6 92 92 NW 10 17 29.8 1009 2.5 4.02335 0.01 0.254
6:03 am 06:03 Cloudy with Light Snow 34 1 30 -1 87 87 NNW 16 26 29.88 1012 1.25 2.011675 0 0
6:20 am 06:20 Cloudy with Light Snow 34 1 30 -1 87 87 NW 16 26 29.88 1012 1.25 2.011675 0 0
6:32 am 06:32 Cloudy with Light Snow 34 1 30 -1 87 87 NW 13 20 29.88 1012 0.75 1.207005 0 0
6:46 am 06:46 Cloudy with Light Snow 32 0 30 -1 93 93 NW 15 24 29.91 1013 1 1.60934 0 0
6:53 am 06:53 Cloudy with Light Snow 33 0.6 30 -1.1 89 89 NW 15 24 29.83 1010 1.75 2.816345 0.03 0.762
6:56 am 06:56 Cloudy with Light Snow 34 1 30 -1 87 87 NW 14 22 29.88 1012 2 3.21868 0 0
7:08 am 07:08 Cloudy with Light Snow 34 1 30 -1 87 87 NW 14 22 29.91 1013 5 8.0467 0 0
7:20 am 07:20 Cloudy with Light Snow 34 1 28 -2 81 81 NW 18 30 29.91 1013 2 3.21868 0 0
7:39 am 07:39 Windy with Snow Likely 33 0.6 30 -1.1 89 89 NW 20 31 29.91 1013 1.25 2.011675 0 0.0254
7:49 am 07:49 Windy with Snow Likely 34 1 28 -2 81 81 NW 20 31 29.91 1013 3 4.82802 0 0.0254
7:53 am 07:53 Windy with Snow Likely 33 0.6 29 -1.7 85 85 NW 23 37 29.87 1012 5 8.0467 0 0.0254
8:36 am 08:36 Cloudy 34 1 28 -2 81 81 NW 16 26 29.94 1014 10 16.0934 0 0
8:53 am 08:53 Cloudy 34 1.1 28 -2.2 79 79 NW 14 22 29.9 1013 10 16.0934 0 0.0254
9:53 am 09:53 Cloudy 35 1.7 27 -2.8 72 72 NW 24 39 29.92 1013 10 16.0934 0 0
10:53 am 10:53 Cloudy 38 3.3 28 -2.2 68 68 NW 26 43 29.92 1013 10 16.0934 0 0
11:53 am 11:53 Sunny 43 6.1 27 -2.8 53 53 NW 29 46 29.89 1012 10 16.0934 0 0
12:53 pm 12:53 Sunny 43 6.1 24 -4.4 47 47 NW 29 46 29.88 1012 10 16.0934 0 0
1:53 pm 13:53 Mostly Cloudy 44 6.7 24 -4.4 45 45 NW 26 43 29.88 1012 10 16.0934 0 0
2:53 pm 14:53 Cloudy 45 7.2 26 -3.3 48 48 WNW 21 33 29.88 1012 10 16.0934 0 0
3:53 pm 15:53 Sunny 43 6.1 23 -5 45 45 WNW 20 31 29.91 1013 10 16.0934 0 0
4:53 pm 16:53 Clear 39 3.9 23 -5 53 53 WNW 13 20 29.93 1013 10 16.0934 0 0
5:53 pm 17:53 Clear 38 3.3 24 -4.4 57 57 WNW 14 22 29.94 1014 10 16.0934 0 0
6:53 pm 18:53 Clear 38 3.3 24 -4.4 57 57 WNW 16 26 29.96 1015 10 16.0934 0 0
7:53 pm 19:53 Clear 38 3.3 24 -4.4 57 57 WNW 17 28 29.98 1015 10 16.0934 0 0
8:53 pm 20:53 Clear 37 2.8 24 -4.4 59 59 WNW 15 24 30.01 1016 10 16.0934 0 0
9:53 pm 21:53 Clear 37 2.8 24 -4.4 59 59 WNW 15 24 30.05 1018 10 16.0934 0 0
10:53 pm 22:53 Clear 37 2.8 24 -4.4 59 59 WNW 16 26 30.07 1018 10 16.0934 0 0
11:53 pm 23:53 Clear 37 2.8 23 -5 57 57 WNW 15 24 30.07 1018 10 16.0934 0 0

Powered by AerisWeather